Location: Songkhla
(7.2000°N, 100.6000°E)
Time: 20:21:07
(UTC+07:00)

ISS - Pass Details

Date: 21 April 2026
Orbit: 414 x 424 km, 51.6° (Epoch: 19 May)

Event Time Altitude Azimuth Distance (km) Brightness Sun altitude
Rises 11:38:48 0° 356° (N) 2,366 0.1 79.6°
Maximum altitude 11:43:16 11° 51° (NE) 1,444 -0.7 80.6°
Drops below altitude 10° 11:44:16 10° 68° (ENE) 1,504 -0.7 80.8°
Sets 11:47:44 0° 106° (ESE) 2,369 0.1 81.5°
